Погода в Заостровье

Россия / Санкт-Петербург и Ленинградская область     60°51′41″N   30°24′05″E
темп.,
°C
ветер,
м/с
пор.,
м/с
влажн.,
%
обл.,
%
осадки,
мм/ч
давл.,
гПа
погр.,
м
7 августа, вс
вс700:00+15ю5891100 0.2 1013291
03:00+14зюз51081100 0.2 1014611
06:00+12з613757 0.0 1016624
09:00+17з711650 0.0 10161071
12:00+19зюз57510 0.0 1017826
15:00+20зюз684812 0.0 10171045
18:00+19з465322 0.0 1018911
21:00+16зюз497013 0.0 1018226
8 августа, пн
пн800:00+14юз48815 0.0 1019190
03:00+13юз498187 0.0 1020196
06:00+14ююз3679100 0.0 1021166
09:00+17юз3571100 0.1 1021335
12:00+18з2367100 0.6 1021546
15:00+17сз2275100 3.3 1022187
18:00+16св2278100 0.7 102233
21:00+15ююз117999 1.1 102315
9 августа, вт
вт900:00+15з228133 0.3 102428
03:00+13сз22815 0.3 102448
06:00+13сз22815 0.0 102559
09:00+16ссз237263 0.0 1025198
12:00+18с235933 0.0 1026469
15:00+17всв235551 0.0 1025960
18:00+17ююз115899 0.0 102577
21:00+16зюз2263100 0.0 102528
10 августа, ср
ср1000:00+15з2369100 0.0 102579
03:00+15зсз236958 0.0 102469
06:00+13з2271100 0.0 102447
09:00+17зюз116327 0.0 1024140
12:00+18вюв32575 0.0 1024791
15:00+19вюв4357100 0.0 1022488
18:00+20зюз2654100 0.0 1022368
21:00+17зюз367193 0.0 1022149
11 августа, чт
чт1100:00+15зюз488377 0.0 1022158
03:00+15зюз4108317 0.0 1022234
06:00+15зюз5118918 0.0 1022336
09:00+19зюз5968100 0.0 1022430
12:00+21юз6958100 0.0 1020600
15:00+21зюз71057100 0.0 1019620
18:00+21зюз6116078 0.0 1018585
21:00+19юз61267100 0.0 1017393